Location: Krakow
(50.0830°N, 19.9170°E)
Time: 00:10:34
(UTC+02:00)

A-11 Canister half - Pass Details

Date: 28 May 2024
Orbit: 1515 x 1684 km, 47.2° (Epoch: 20 June)

Event Time Altitude Azimuth Distance (km) Brightness Sun altitude
Exits shadow 02:46:55 - 245° (WSW) 4,008 10.7 -12.9°
Reaches altitude 10° 02:47:37 10° 244° (WSW) 3,781 10.6 -12.8°
Maximum altitude 02:57:03 68° 165° (SSE) 1,643 9.0 -12.0°
Drops below altitude 10° 03:06:19 10° 85° (E) 3,710 11.6 -11.2°
Sets 03:09:15 0° 83° (E) 4,662 12.2 -10.9°
